Flag for U.S.A. Weather past 2 weeks in Miami, Florida, U.S.A.

Now
72 °F

Passing clouds.


Feels Like: 73 °F
Forecast: 70 / 80 °F
Wind: 7 mph from North

Location: Miami International Airport

Current Time: Oct 26, 2014 at 3:32:19 AM

Latest Report: Oct 26, 2014 at 2:53 AM


Visibility: 10 mi

Pressure: 29.91 "Hg

Humidity: 76%

Dew point: 64 °F

Location of MiamiLocation

Historic Weather in Miami — Graph

°F

Miami temperature yesterday

Maximum temperature yesterday: 84 °F (at 2:53 PM)
Minimum temperature yesterday: 70 °F (at 4:53 AM)
Average temperature yesterday: 76 °F

Past Weeks' High & Low Weather Summary

 TemperatureHumidityPressure
High88 °F (Oct 11, 1:53 PM)97% (Oct 23, 5:53 AM)30.08 "Hg (Oct 23, 5:53 AM)
Low68 °F (Oct 18, 4:53 AM)36% (Oct 17, 3:53 PM)29.80 "Hg (Oct 24, 4:53 PM)
Average79 °F72%29.95 "Hg
* Reported Oct 11 1:53 AM — Oct 26 1:53 AM, Miami, Weather by CustomWeather, © 2014

Note: Actual official high and low records may vary slightly from our data, if they occured in-between our weather recording intervals... More about our weather records

Advertising

Miami weather history for previous 24 hours

 ConditionsComfort  
Time TempWeatherWind HumidityBarometerVisibility
1:53 AM
Oct 26
73 °FPassing clouds.6 mph71%29.93 "Hg10 mi
12:53 AM72 °FPassing clouds.6 mph76%29.94 "Hg10 mi
11:53 PM
Oct 25
73 °FPassing clouds.6 mph74%29.95 "Hg10 mi
10:53 PM74 °FClear.No wind69%29.95 "Hg10 mi
9:53 PM74 °FClear.No wind67%29.95 "Hg10 mi
8:53 PM75 °FPassing clouds.5 mph62%29.94 "Hg10 mi
7:53 PM76 °FPassing clouds.5 mph58%29.92 "Hg10 mi
6:53 PM77 °FPassing clouds.8 mph56%29.90 "Hg10 mi
5:53 PM79 °FScattered clouds.9 mph54%29.89 "Hg10 mi
4:53 PM80 °FPartly sunny.9 mph52%29.88 "Hg10 mi
3:53 PM83 °FPartly sunny.9 mph50%29.88 "Hg10 mi
2:53 PM84 °FScattered clouds.10 mph43%29.88 "Hg10 mi
1:53 PM83 °FPassing clouds.6 mph43%29.90 "Hg10 mi
12:53 PM82 °FPassing clouds.12 mph48%29.91 "Hg10 mi
11:53 AM81 °FPassing clouds.8 mph42%29.93 "Hg10 mi
10:53 AM80 °FSunny.13 mph49%29.93 "Hg10 mi
9:53 AM76 °FPassing clouds.7 mph60%29.93 "Hg10 mi
8:53 AM73 °FPassing clouds.9 mph66%29.93 "Hg10 mi
7:53 AM70 °FPassing clouds.8 mph73%29.90 "Hg10 mi
6:53 AM70 °FPassing clouds.6 mph76%29.88 "Hg10 mi
5:53 AM70 °FPassing clouds.6 mph76%29.87 "Hg10 mi
4:53 AM70 °FPassing clouds.7 mph79%29.85 "Hg10 mi
3:53 AM71 °FPassing clouds.7 mph78%29.85 "Hg10 mi
Weather by CustomWeather, © 2014

See weather overviewHow to use our weather pages